TimeMST,TemperatureF,Dew PointF,Humidity,Sea Level PressureIn,VisibilityMPH,Wind Direction,Wind SpeedMPH,Gust SpeedMPH,PrecipitationIn,Events,Conditions,WindDirDegrees,DateUTC
12:53 AM,48.9,32.0,52,29.90,10.0,South,19.6,27.6,N/A,,Mostly Cloudy,180,2014-03-06 07:53:00
1:53 AM,50.0,32.0,50,29.88,10.0,South,19.6,26.5,N/A,,Overcast,180,2014-03-06 08:53:00
2:53 AM,48.0,35.1,61,29.87,10.0,SSW,13.8,-,0.00,,Overcast,200,2014-03-06 09:53:00
3:53 AM,46.9,37.9,71,29.88,8.0,SSW,17.3,-,0.05,Rain,Rain,200,2014-03-06 10:53:00
4:53 AM,46.9,39.0,74,29.87,10.0,South,15.0,-,0.02,,Overcast,170,2014-03-06 11:53:00
5:53 AM,48.9,37.9,66,29.83,10.0,South,18.4,29.9,0.00,,Scattered Clouds,190,2014-03-06 12:53:00
6:53 AM,48.0,37.0,66,29.86,10.0,South,19.6,29.9,0.02,Rain,Light Rain,190,2014-03-06 13:53:00
7:53 AM,45.0,39.0,80,29.91,8.0,South,21.9,32.2,N/A,Rain,Light Rain,180,2014-03-06 14:53:00
8:53 AM,45.0,39.0,80,29.89,10.0,South,17.3,-,0.02,,Overcast,170,2014-03-06 15:53:00
9:53 AM,48.9,39.9,71,29.83,10.0,South,23.0,32.2,0.00,Rain,Light Rain,180,2014-03-06 16:53:00
10:53 AM,52.0,39.9,63,29.81,10.0,South,23.0,33.4,0.00,,Overcast,180,2014-03-06 17:53:00
11:53 AM,52.0,39.0,61,29.82,10.0,SSW,20.7,31.1,N/A,,Overcast,200,2014-03-06 18:53:00
12:21 PM,48.9,41.0,74,29.89,10.0,West,12.7,27.6,0.00,Rain,Light Rain,270,2014-03-06 19:21:00
12:53 PM,46.9,44.1,90,29.87,10.0,SW,17.3,-,0.02,Rain,Light Rain,230,2014-03-06 19:53:00
1:53 PM,46.0,41.0,83,29.86,10.0,West,13.8,-,0.00,,Mostly Cloudy,260,2014-03-06 20:53:00
2:53 PM,43.0,39.9,89,29.88,10.0,SW,15.0,-,0.01,Rain,Light Rain,230,2014-03-06 21:53:00
3:53 PM,43.0,39.9,89,29.88,10.0,South,18.4,25.3,0.00,,Mostly Cloudy,190,2014-03-06 22:53:00
4:53 PM,45.0,37.9,76,29.86,10.0,SW,19.6,27.6,N/A,,Scattered Clouds,220,2014-03-06 23:53:00
5:53 PM,44.1,36.0,73,29.87,10.0,SW,20.7,29.9,N/A,,Scattered Clouds,220,2014-03-07 00:53:00
6:53 PM,43.0,35.1,74,29.89,10.0,SSW,21.9,-,N/A,,Partly Cloudy,210,2014-03-07 01:53:00
7:53 PM,42.1,35.1,76,29.92,10.0,SSW,15.0,-,N/A,,Partly Cloudy,210,2014-03-07 02:53:00
8:53 PM,42.1,34.0,73,29.94,10.0,SW,21.9,25.3,N/A,,Clear,220,2014-03-07 03:53:00
9:53 PM,39.9,35.1,83,29.95,10.0,SW,17.3,-,N/A,,Clear,220,2014-03-07 04:53:00
11:53 PM,37.9,35.1,89,29.97,10.0,SSW,15.0,-,N/A,,Clear,210,2014-03-07 06:53:00